Location: Unspecified
(0.0000°N, 0.0000°E)
Time: 06:34:26
(UTC+00:00)

Daily predictions for brighter satellites

Satellite Brightness Start Highest point End
(mag) Time Altitude Azimuth Time Altitude Azimuth Time Altitude Azimuth
BLOCK DM-SL R/B 4.2 16:36:08 10° W 16:41:30 89° N 17:41:47 10° E
ARIANE 5 R/B 3.6 18:01:54 10° W 18:06:29 80° S 18:48:13 10° E
ARIANE 5 R/B 3.6 18:01:54 10° W 18:06:30 80° S 18:48:13 10° E
ARIANE 5 R/B 3.6 18:01:55 10° W 18:06:30 80° S 18:48:13 10° E
Ariane H10 4.2 18:10:37 10° W 18:14:14 69° S 18:29:51 10° E
Cosmos 2082 4.2 18:12:18 10° N 18:17:29 40° ENE 18:22:42 10° SE
SMAP 4.3 18:15:21 10° S 18:19:48 46° WSW 18:24:15 10° NNW
Ariane 3 Deb 3.6 18:16:52 10° WSW 18:19:59 38° S 18:26:43 10° ESE
Resurs 01 Rocket 3.5 18:19:37 10° E 18:20:44 11° ENE 18:21:49 10° ENE
GEOS 3 Rocket 3.8 18:18:02 10° SSE 18:23:09 79° WSW 18:28:21 10° NNW
Milstar 3 Cent rocket 3.5 18:19:49 10° W 18:23:49 27° SSW 18:28:07 10° SSE
Meteor 1-22 Rocket 4.2 18:19:30 10° S 18:24:52 85° E 18:30:26 10° N
Lacrosse 4 Rocket 1.6 18:24:43 10° NNW 18:28:52 77° WSW 18:33:03 10° SSE
SJ-6F 4.4 18:26:56 10° SSE 18:30:50 57° E 18:34:45 10° N
Cosmos 858 Rocket 4.5 18:27:38 10° S 18:32:52 71° ESE 18:38:04 10° NNE
ERS-1 4.5 18:28:28 10° SSE 18:33:32 67° ENE 18:38:29 10° N
Cosmos 2219 3.2 18:29:11 10° NNW 18:34:46 82° ENE 18:40:24 10° SSE
IRS-P3 4.2 18:32:18 10° SSE 18:37:31 57° ENE 18:42:42 10° N
BLOCK DM-SL R/B 0.4 18:36:45 10° W 18:39:20 79° S 18:40:42 17° E
Cosmos 2074 Rocket 4.0 18:34:17 10° S 18:40:27 66° E 18:46:35 10° NNE
SJ-12 4.3 18:38:02 10° S 18:41:44 61° W 18:45:25 10° NNW
ARIANE 5 R/B 3.6 18:29:47 10° W 18:42:36 90° NNW 18:46:10 14° E
CZ-2D R/B 3.4 18:40:16 10° S 18:43:10 53° W 18:46:04 10° NNW
Cosmos 2208 Rocket 4.0 18:39:41 10° NNW 18:44:51 86° WSW 18:50:00 10° S
SPOT 1/Viking Rocket 4.2 18:39:45 10° S 18:44:52 60° WSW 18:49:58 10° NNW
COSMOS 2428 2.7 18:39:48 10° S 18:45:27 65° ESE 18:51:06 10° NNE
ARIANE 3 DEB 4.1 18:40:24 10° WSW 18:45:40 43° S 18:49:42 15° ESE
Haruka 3.0 18:43:06 10° NW 18:46:14 40° NE 18:49:16 16° ESE
Okean 1-7 4.1 18:47:45 10° NE 18:50:56 22° E 18:52:13 19° ESE
Cosmos 1470 Rocket 3.5 18:46:54 10° S 18:51:19 73° E 18:55:41 10° N
CENTAUR R/B 4.0 18:44:31 10° N 18:52:56 36° ENE 18:59:38 15° ESE
DNEPR-1 R/B 3.8 18:51:50 10° SSW 18:57:04 84° WNW 19:01:30 10° NNE
SAR-Lupe-4 3.8 18:53:44 10° SSE 18:57:09 45° ENE 19:00:33 10° N
DEBRIS 3.6 18:49:51 10° SSW 18:57:31 44° SE 18:59:15 24° ENE
Cosmos 1933 Rocket 4.3 18:55:04 10° SSE 18:58:49 29° E 19:02:34 10° NNE
CARTOSAT-1 3.5 18:55:31 10° SSE 18:59:40 60° ENE 19:03:46 10° N
PSLV R/B 4.1 19:00:31 24° ESE 19:02:04 32° ENE 19:05:40 10° NNE
Gblst 52 Del rocket 4.3 18:56:55 10° SW 19:02:22 74° NW 19:08:05 10° NNE
ARIANE 5 R/B 2.6 18:59:49 10° W 19:02:26 73° S 19:06:34 23° ESE
ARIANE 5 R/B 4.3 18:56:50 10° WNW 19:03:10 68° N 19:29:48 22° E
Cosmos 1610 Rocket 4.5 18:59:41 10° S 19:05:59 62° E 19:12:11 10° NNE
Ariane H10+ 2.4 19:04:01 10° WSW 19:06:39 23° S 19:07:01 22° S
BREEZE-M DEB (TANK) 3.3 19:04:12 10° WNW 19:07:24 31° SW 19:08:55 17° S
NOAA 6 4.1 19:04:25 10° SSE 19:09:26 54° ENE 19:14:23 10° N
Milstar 3 2.9 19:08:03 10° SW 19:14:42 80° SSE 19:21:35 19° ENE
SJ-7 4.0 19:16:26 24° SSE 19:18:36 82° ENE 19:22:18 10° N
Aurora 2 Rocket 4.1 19:12:27 10° SW 19:19:02 52° SSE 19:22:51 31° E
YAOGAN 1 4.0 19:17:47 10° S 19:21:43 37° WSW 19:25:38 10° NNW
Sylda 5 3.4 19:20:13 10° W 19:24:26 80° S 19:30:31 30° ESE
SEDSat Delta rocket 3.9 19:20:02 10° NW 19:26:21 61° NNE 19:28:04 44° E
SWIFT 2.3 19:25:40 10° WNW 19:28:11 51° W 19:28:11 51° W
Cosmos 1862 Rocket 3.5 19:25:35 10° N 19:29:56 85° W 19:32:20 26° S
Cosmos 1707 Rocket 3.3 19:25:40 10° N 19:29:57 87° E 19:31:28 40° S
HETE-2 4.5 19:26:49 10° W 19:30:05 61° NNW 19:30:05 61° NNW
OAO 1 4.4 19:26:18 10° NW 19:31:45 86° NE 19:33:01 54° ESE
Cosmos 962 Rocket 4.4 19:35:43 10° S 19:42:03 80° E 19:48:18 10° N
Hubble Space Telescope 3.0 19:38:58 10° SSW 19:39:41 14° SSW 19:39:41 14° SSW
Cosmos 1844 Rocket 2.8 19:38:08 10° NNW 19:43:39 72° WSW 19:46:14 33° S
GPS 2-15 Rocket1 4.1 19:40:10 10° NW 19:43:46 35° N 19:43:46 35° N
ATLAS 2AS CENTAUR RB 2.3 19:34:08 10° W 19:44:26 51° SSW 19:44:45 50° S
Maqsat-H 3.3 19:42:26 10° WNW 19:46:51 55° NNE 19:50:01 39° ENE
Cosmos 2237 Rocket 2.1 19:42:44 10° SSW 19:48:23 84° WNW 19:54:02 10° NNE
Cosmos 2181 Rocket 4.5 19:42:25 10° NNW 19:48:27 58° W 19:54:37 10° S
Cosmos 1980 3.8 19:43:54 10° SSW 19:49:32 73° WNW 19:55:09 10° N
Nadezhda 3 Rocket 4.0 19:44:14 10° N 19:49:28 58° NE 19:49:28 58° NE
Meteor 2-5 Rocket 3.6 19:49:14 10° N 19:54:39 84° NNE 19:54:39 84° NNE
Resurs 01 Rocket 3.3 19:53:17 12° SSW 19:56:48 30° WSW 20:00:39 10° NW
Cosmos 2228 Rocket 4.1 19:52:38 10° NNW 19:55:41 41° NW 19:55:41 41° NW
ARIANE 5 DEB (SYLDA) 4.0 19:53:17 10° W 19:57:38 45° WSW 19:57:38 45° WSW
Atlas Centaur 2 4.1 20:05:37 10° NNW 20:08:45 22° N 20:08:45 22° N
BLOCK DM-SL R/B 3.7 20:10:07 10° W 20:16:11 64° WNW 20:16:11 64° WNW
Cosmos 2341 Rocket 4.5 20:12:37 10° SSW 20:19:39 55° NW 20:24:50 10° N
Ariane H10+ 4.3 20:09:20 10° W 20:25:33 89° S 20:29:05 64° E
CENTAUR R/B 4.3 20:34:52 10° NW 20:43:32 40° WSW 20:46:51 31° SSW
Centaur AC-72 4.4 21:03:07 10° W 21:15:22 43° WSW 21:15:22 43° WSW
